Nantucket, MA

10:29 AM EST on January 17, 2017 (GMT -0500)
Nantucket Memorial

Weather History for KACK - January, 2012

Change the Weather History Date:

Saturday, January 21, 2012

  Actual Average Record
Temperature  
Mean Temperature 30 °F -  
Max Temperature 35 °F 37 °F 53 °F (1979)
Min Temperature 25 °F 22 °F 2 °F (1970)
Degree Days  
Heating Degree Days 35    
Moisture  
Dew Point 28 °F    
Average Humidity 86    
Maximum Humidity 96    
Minimum Humidity 58    
Precipitation  
Precipitation 0.31 in - - ()
Sea Level Pressure  
Sea Level Pressure 30.09 in    
Wind  
Wind Speed 10 mph (NE)    
Max Wind Speed 25 mph    
Max Gust Speed 36 mph    
Visibility 4 miles    
Events Fog , Rain , Snow    
Averages and records for this station are not official NWS values.
T = Trace of Precipitation, MM = Missing Value Source: NWS Daily Summary

Daily Weather History Graph

Daily Weather History Graph

Search for Another Location

Airport or City:

Trip Planner

Search our weather history database for the weather conditions in past years. The results will help you decide how hot, cold, wet, or windy it might be!

Date:

Astronomy

Jan. 21, 2012 Rise Set
Actual Time 7:00 AM EST 4:42 PM EST
Civil Twilight 6:30 AM EST 5:12 PM EST
Nautical Twilight 5:57 AM EST 5:46 PM EST
Astronomical Twilight 5:24 AM EST 6:19 PM EST
Moon 5:29 AM EST (1/21) 3:14 PM EST (1/21)
Length of Visible Light 10h 41m
Length of Day
9h 41m
Waning Crescent, 3% of the Moon is Illuminated
Jan 21
Waning Crescent
Jan 23
New
Jan 30
First Quarter
Feb 7
Full
Feb 14
Last Quarter

Hourly Weather History & Observations

Time (EST) Temp. Windchill Dew Point Humidity Pressure Visibility Wind Dir Wind Speed Gust Speed Precip Events Conditions
12:53 AM 27.0 °F 23.0 °F 14.0 °F 58% 30.28 in 10.0 mi NNW 3.5 mph - N/A   Clear
1:53 AM 25.0 °F - 15.1 °F 66% 30.26 in 10.0 mi Calm Calm - N/A   Clear
2:53 AM 26.1 °F - 17.1 °F 69% 30.25 in 10.0 mi Calm Calm - N/A   Clear
3:53 AM 28.0 °F 24.2 °F 18.0 °F 66% 30.25 in 10.0 mi WNW 3.5 mph - N/A   Overcast
4:53 AM 28.9 °F 25.2 °F 18.0 °F 64% 30.25 in 10.0 mi NW 3.5 mph - N/A   Overcast
5:53 AM 28.0 °F - 19.9 °F 72% 30.23 in 10.0 mi Calm Calm - N/A   Overcast
6:53 AM 28.9 °F 22.8 °F 19.9 °F 69% 30.20 in 10.0 mi ENE 5.8 mph - N/A   Overcast
7:22 AM 28.4 °F 24.6 °F 19.4 °F 69% 30.20 in 4.0 mi ENE 3.5 mph - 0.00 in Snow Light Snow
7:33 AM 28.4 °F 24.6 °F 21.2 °F 74% 30.21 in 1.8 mi ENE 3.5 mph - 0.00 in Snow Light Snow
7:49 AM 28.4 °F 23.3 °F 23.0 °F 80% 30.20 in 0.8 mi ENE 4.6 mph - 0.00 in Snow Light Snow
7:53 AM 28.0 °F 22.8 °F 24.1 °F 85% 30.20 in 0.8 mi ENE 4.6 mph - 0.00 in Snow Light Snow
8:34 AM 28.4 °F 22.2 °F 26.6 °F 93% 30.19 in 1.0 mi East 5.8 mph - 0.01 in Snow Light Snow
8:53 AM 30.0 °F 23.2 °F 28.0 °F 92% 30.18 in 0.8 mi East 6.9 mph - 0.01 in Snow Light Snow
9:10 AM 30.2 °F 22.6 °F 28.4 °F 93% 30.16 in 0.8 mi East 8.1 mph - 0.00 in Snow Light Snow
9:53 AM 32.0 °F 24.8 °F 30.0 °F 92% 30.16 in 0.8 mi East 8.1 mph - 0.01 in Snow Light Snow
10:13 AM 32.0 °F 25.6 °F 30.2 °F 93% 30.15 in 0.8 mi ENE 6.9 mph - 0.00 in Snow Light Snow
10:53 AM 32.0 °F 24.8 °F 30.9 °F 96% 30.11 in 0.5 mi ENE 8.1 mph - 0.04 in Fog , Snow Snow
11:53 AM 33.1 °F 24.9 °F 30.9 °F 92% 30.06 in 0.2 mi ENE 10.4 mph - 0.04 in Fog , Snow Heavy Snow
12:02 PM 33.8 °F 25.3 °F 30.2 °F 87% 30.05 in 0.5 mi ENE 11.5 mph - 0.00 in Fog , Snow Snow
12:53 PM 33.1 °F 23.0 °F 32.0 °F 96% 30.01 in 0.5 mi NE 15.0 mph - 0.03 in Fog , Snow Snow
1:30 PM 33.8 °F 24.8 °F 32.0 °F 93% 29.98 in 0.8 mi NE 12.7 mph - 0.02 in Snow Light Snow
1:38 PM 33.8 °F 24.3 °F 32.0 °F 93% 29.98 in 0.8 mi NE 13.8 mph - 0.03 in Snow Light Snow
1:53 PM 33.1 °F 23.4 °F 32.0 °F 96% 29.98 in 0.8 mi NE 13.8 mph - 0.05 in Snow Light Snow
2:03 PM 33.8 °F 23.5 °F 32.0 °F 93% 29.97 in 1.2 mi NE 16.1 mph - 0.01 in Rain , Snow Light Rain
2:14 PM 33.8 °F 23.5 °F 32.0 °F 93% 29.97 in 2.0 mi NE 16.1 mph 23.0 mph 0.03 in Rain , Snow Light Rain
2:21 PM 33.8 °F 23.5 °F 32.0 °F 93% 29.97 in 1.5 mi NE 16.1 mph 23.0 mph 0.04 in Rain , Snow Light Rain
2:34 PM 33.8 °F 23.2 °F 32.0 °F 93% 29.97 in 2.0 mi NE 17.3 mph - 0.06 in Rain , Snow Light Rain
2:43 PM 33.8 °F 23.5 °F 32.0 °F 93% 29.97 in 1.5 mi NE 16.1 mph - 0.07 in Snow Light Snow
2:53 PM 33.1 °F 21.5 °F 32.0 °F 96% 29.97 in 2.0 mi NNE 19.6 mph 25.3 mph 0.08 in Snow Light Snow
3:03 PM 33.8 °F 22.5 °F 32.0 °F 93% 29.98 in 4.0 mi NE 19.6 mph 29.9 mph 0.01 in Rain Ice Pellets
3:53 PM 33.1 °F 21.5 °F 32.0 °F 96% 29.98 in 6.0 mi NNE 19.6 mph - 0.03 in Rain Light Ice Pellets
4:28 PM 33.8 °F 22.8 °F 32.0 °F 93% 29.98 in 2.5 mi NNE 18.4 mph 28.8 mph 0.01 in Snow Light Snow
4:35 PM 33.8 °F 21.9 °F 32.0 °F 93% 29.97 in 2.0 mi NNE 21.9 mph 27.6 mph 0.02 in Snow Light Snow
4:49 PM 33.8 °F 21.6 °F 32.0 °F 93% 29.98 in 4.0 mi NNE 23.0 mph 34.5 mph 0.02 in Snow Light Snow
4:50 PM 33.8 °F 22.2 °F 32.0 °F 93% 29.98 in 4.0 mi NNE 20.7 mph 34.5 mph 0.02 in Snow Light Snow
4:53 PM 34.0 °F 21.5 °F 32.0 °F 92% 29.98 in 4.0 mi NNE 24.2 mph 34.5 mph 0.02 in Snow Light Snow
5:01 PM 33.8 °F 21.9 °F 32.0 °F 93% 29.99 in 4.0 mi NNE 21.9 mph 29.9 mph 0.00 in Snow Light Snow
5:53 PM 34.0 °F 21.5 °F 32.0 °F 92% 30.03 in 6.0 mi NNE 24.2 mph 32.2 mph 0.00 in Rain Light Freezing Rain
6:00 PM 33.8 °F 21.6 °F 32.0 °F 93% 30.03 in 6.0 mi NNE 23.0 mph 35.7 mph 0.00 in Snow Light Snow
6:53 PM 34.0 °F 22.1 °F 32.0 °F 92% 30.06 in 6.0 mi NNE 21.9 mph 32.2 mph 0.00 in Snow Light Snow
7:41 PM 35.6 °F 23.7 °F 30.2 °F 81% 30.09 in 6.0 mi North 24.2 mph 31.1 mph 0.00 in   Overcast
7:53 PM 35.1 °F 24.1 °F 32.0 °F 89% 30.10 in 6.0 mi North 19.6 mph 31.1 mph 0.00 in Rain Light Rain
8:39 PM 35.6 °F 23.4 °F 30.2 °F 81% 30.11 in 10.0 mi NNE 25.3 mph - 0.00 in   Overcast
8:48 PM 35.6 °F 23.4 °F 30.2 °F 81% 30.12 in 10.0 mi NNE 25.3 mph 35.7 mph 0.00 in Snow Light Snow
8:53 PM 35.1 °F 22.7 °F 30.0 °F 82% 30.12 in 9.0 mi NNE 25.3 mph 35.7 mph 0.00 in   Overcast
9:53 PM 35.1 °F 23.8 °F 28.9 °F 78% 30.16 in 10.0 mi NNE 20.7 mph 34.5 mph 0.00 in   Overcast
10:53 PM 34.0 °F 21.8 °F 28.9 °F 82% 30.19 in 10.0 mi NNE 23.0 mph 31.1 mph N/A   Overcast
11:53 PM 33.1 °F 20.1 °F 28.0 °F 82% 30.22 in 10.0 mi NNE 25.3 mph 32.2 mph N/A   Overcast